Regional Weather Roundup
Issued by NWS

Home | Current Version | Previous Version | Graphics & Text | Print | Product List | Glossary On
Versions: 1 2 3 4 5 6 7 8 9 10 11 12 13 14 15 16 17 18 19 20 21 22 23 24 25 26 27 28 29 30 31 32 33 34 35 36 37 38 39 40 41 42 43 44 45 46 47 48 49 50
000
ASUS45 KABQ 300801
RWRNM
WEATHER ROUNDUP FOR NEW MEXICO
NATIONAL WEATHER SERVICE ALBUQUERQUE NM
200 AM MDT MON MAR 30 2015

NOTE: "FAIR" MEANS FEW OR NO CLOUDS BELOW 12,000 FEET AGL WITH NO
       SIGNIFICANT WEATHER OR OBSTRUCTIONS TO VISION.

      THIS PRODUCT IS RELEASED AS TWO VERSIONS.  ONE VERSION NEAR
      THE TOP OF THE HOUR CONTAINING PRELIMINARY DATA FROM ALBUQUERQUE
      AND OTHER STATIONS.  A FINAL VERSION WITH ADDITIONAL DATA IS
      ISSUED ABOUT 10 MINUTES AFTER THE HOUR.

NMZ501-503-504-510>518-300900-
NORTHWEST PLATEAU/NORTHCENTRAL MOUNTAINS

CITY           SKY/WX    TMP DP  RH WIND       PRES   REMARKS
FARMINGTON     CLEAR     47  18  31 E6        30.20R
LOS ALAMOS     PTCLDY    50  21  32 SW10G17   30.36F
SANTA FE       CLEAR     45  21  38 SW8       30.32R
TAOS           CLEAR     39  23  52 E8        30.33S WCI  34
ANGEL FIRE     FAIR      31  27  84 CALM      30.39F

$$
NMZ402-403-502-505>509-300900-
WESTCENTRAL MOUNTAINS/SOUTHWEST MOUNTAINS

CITY           SKY/WX    TMP DP  RH WIND       PRES   REMARKS
GALLUP         MOCLDY    41  15  35 NE7       30.28S
GRANTS         CLOUDY    51  20  29 CALM      30.31S
SILVER CITY    CLOUDY    54  23  30 N10       30.24S

$$
NMZ407-409-411-412-300900-
SOUTHERN DESERTS

CITY           SKY/WX    TMP DP  RH WIND       PRES   REMARKS
LORDSBURG      FAIR      57  23  26 CALM      30.16S
DEMING         CLOUDY    57  26  30 CALM      30.16F
LAS CRUCES     CLOUDY    65  17  15 CALM      30.18F
HOLLOMAN AFB   MOCLDY    75  19  12 S17G25    30.15R
ALAMOGORDO     MOCLDY    75  21  13 W24G35    30.19R
T OR C         MOCLDY    63  19  18 W7        30.18S

$$
NMZ519>523-300900-
CENTRAL VALLEYS/CENTRAL HIGHLANDS

CITY           SKY/WX    TMP DP  RH WIND       PRES   REMARKS
ALBUQUERQUE    PTCLDY    58  24  27 E17       30.24R
DOUBLE EAGLE   CLEAR     49  24  37 N7        30.27F
MORIARTY ARPT  FAIR      43  20  40 CALM      30.33F
CLINES CORNERS CLEAR     42  21  43 E10       30.31F
BELEN          FAIR      61  26  26 SE12      30.21S
SOCORRO        FAIR      56  18  22 CALM      30.19F

$$
NMZ524>526-539-540-300900-
SOUTHCENTRAL MOUNTAINS

CITY           SKY/WX    TMP DP  RH WIND       PRES   REMARKS
RUIDOSO        NOT AVBL

$$
NMZ527>531-300900-
NORTHEAST HIGHLANDS/NORTHEAST PLAINS

CITY           SKY/WX    TMP DP  RH WIND       PRES   REMARKS
LAS VEGAS      CLEAR     41  23  48 SW7       30.34F
RATON          PTCLDY    42  28  57 SW7       30.29F
CLAYTON        CLOUDY    47  27  45 S12       30.24F

$$
NMZ532>537-300900-
EASTCENTRAL PLAINS

CITY           SKY/WX    TMP DP  RH WIND       PRES   REMARKS
TUCUMCARI      PTCLDY    49  25  39 SW5       30.22F
CANNON AFB     NOT AVBL
CLOVIS AIRPORT PTCLDY    45  27  49 E8        30.23F

$$
NMZ028-029-538-300900-
SOUTHEAST PLAINS

CITY           SKY/WX    TMP DP  RH WIND       PRES   REMARKS
ROSWELL        CLOUDY    52  36  54 SW6       30.25R
ARTESIA        MOCLDY    57  30  35 CALM      30.25S
CARLSBAD       PTCLDY    58  37  45 S9        30.21F
HOBBS          CLOUDY    54  32  43 E7        30.23R


$$



USA.gov is the U.S. government's official web portal to all federal, state and local government web resources and services.